EW5770 Weather Reports


Display with metric or nautical units.
time (UTC)temp
F
wind
direction
speed
MPH
gust
MPH
rain 1hr
in
rain 24hr
in
rain mn
in
humidity
%
barometer
mb
20260507220957 54 0 0.0 0.0 0.00 0.01 0.00 90 1014.3
20260507220002 55 0 0.0 0.0 0.00 0.01 0.00 90 1014.2
20260507214957 54 0 0.0 0.0 0.00 0.01 0.01 91 1014.0
20260507212958 55 0 0.0 0.0 0.00 0.01 0.01 91 1013.9
20260507211956 55 0 0.0 0.0 0.00 0.01 0.01 91 1013.9
20260507210957 55 0 0.0 0.0 0.00 0.01 0.01 91 1013.8
20260507204957 56 0 0.0 0.0 0.00 0.01 0.01 90 1013.9
20260507203958 56 0 0.0 0.0 0.00 0.01 0.01 90 1014.0
20260507202006 56 0 0.0 0.0 0.00 0.01 0.01 91 1013.8
20260507195957 57 0 0.0 0.0 0.00 0.01 0.01 91 1013.7
20260507194957 57 0 0.0 0.0 0.00 0.01 0.01 90 1013.7
20260507193958 58 0 0.0 0.0 0.00 0.01 0.01 89 1013.6
20260507193001 58 0 0.0 0.0 0.00 0.01 0.01 89 1013.5
20260507190957 58 0 0.0 0.0 0.00 0.01 0.01 89 1013.4
20260507185958 59 0 0.0 0.0 0.00 0.01 0.01 88 1013.3
20260507183958 60 0 0.0 0.0 0.00 0.01 0.01 86 1013.3
20260507182957 60 0 0.0 0.0 0.00 0.01 0.01 85 1013.3
20260507182003 61 0 0.0 0.0 0.00 0.01 0.01 84 1013.2
20260507175958 62 0 1.0 0.0 0.00 0.01 0.01 81 1013.2
20260507174957 62 235 0.0 5.0 0.00 0.01 0.01 80 1013.2
20260507172959 63 0 0.0 0.0 0.00 0.01 0.01 78 1013.2
20260507171957 63 247 2.0 8.0 0.00 0.01 0.01 78 1013.4
20260507170957 64 168 2.0 5.0 0.00 0.01 0.01 78 1013.1
20260507170003 64 237 3.0 9.0 0.00 0.01 0.01 78 1013.0
20260507163958 64 238 6.0 12.0 0.00 0.01 0.01 76 1012.9
20260507162957 66 235 2.0 14.0 0.00 0.01 0.01 74 1012.9
20260507161958 67 198 1.0 9.0 0.00 0.01 0.01 72 1012.8
20260507160958 67 237 1.0 6.0 0.00 0.01 0.01 71 1012.8
20260507154957 66 195 2.0 4.0 0.00 0.01 0.01 72 1012.9
20260507150958 65 235 3.0 13.0 0.01 0.01 0.01 74 1013.0
20260507150011 65 178 3.0 9.0 0.01 0.01 0.01 74 1013.0
20260507144958 65 190 2.0 4.0 0.01 0.01 0.01 75 1013.0
20260507142958 64 169 2.0 5.0 0.01 0.01 0.01 78 1013.2
20260507141958 63 163 1.0 6.0 0.01 0.01 0.01 80 1013.3
20260507133957 62 0 0.0 0.0 0.00 0.00 0.00 83 1013.3
20260507132958 61 76 2.0 2.0 0.00 0.00 0.00 84 1013.4
20260507130957 62 0 1.0 0.0 0.00 0.00 0.00 83 1013.4
20260507125958 62 82 1.0 6.0 0.00 0.00 0.00 82 1013.4
20260507124957 62 0 0.0 0.0 0.00 0.00 0.00 81 1013.4
20260507123958 61 0 0.0 0.0 0.00 0.00 0.00 82 1013.3
20260507122958 62 0 4.0 0.0 0.00 0.00 0.00 82 1013.2
20260507121958 62 25 5.0 9.0 0.00 0.00 0.00 81 1013.2
20260507120959 62 37 1.0 9.0 0.00 0.00 0.00 81 1013.2
20260507115958 62 69 3.0 1.0 0.00 0.00 0.00 79 1013.2
20260507114957 62 46 2.0 12.0 0.00 0.00 0.00 79 1013.2
20260507113958 62 42 0.0 3.0 0.00 0.00 0.00 79 1013.4
20260507112959 62 63 3.0 3.0 0.00 0.00 0.00 80 1013.5
20260507103958 63 196 4.0 7.0 0.00 0.00 0.00 79 1013.5
20260507102958 63 233 1.0 16.0 0.00 0.00 0.00 78 1013.5
20260507101958 63 179 1.0 6.0 0.00 0.00 0.00 76 1013.4
20260507100958 63 348 3.0 9.0 0.00 0.00 0.00 76 1013.4
20260507095959 64 0 2.0 0.0 0.00 0.00 0.00 75 1013.3
20260507094958 65 185 2.0 7.0 0.00 0.00 0.00 72 1013.3
20260507085959 63 244 4.0 10.0 0.00 0.00 0.00 74 1013.2
20260507083958 63 240 4.0 11.0 0.00 0.00 0.00 77 1013.0
20260507083001 63 231 1.0 7.0 0.00 0.00 0.00 77 1012.9
20260507082000 64 228 1.0 3.0 0.00 0.00 0.00 74 1012.8
20260507081001 64 236 2.0 5.0 0.00 0.00 0.00 73 1012.6
20260507075958 64 190 1.0 9.0 0.00 0.00 0.00 71 1012.5
20260507074958 64 86 3.0 7.0 0.00 0.00 0.00 70 1012.5
20260507074007 63 80 6.0 9.0 0.00 0.00 0.00 70 1012.5
20260507072958 64 80 5.0 11.0 0.00 0.00 0.00 71 1012.5
20260507072001 63 63 8.0 12.0 0.00 0.00 0.00 72 1012.5
20260507070958 63 64 8.0 14.0 0.00 0.00 0.00 72 1012.5
20260507064958 62 76 7.0 12.0 0.00 0.08 0.00 73 1012.5
20260507063958 62 90 6.0 14.0 0.00 0.13 0.00 73 1012.6
20260507062958 62 84 4.0 6.0 0.00 0.15 0.00 73 1012.4
20260507061959 62 83 4.0 6.0 0.00 0.15 0.00 74 1012.4
20260507060958 61 73 0.0 5.0 0.00 0.15 0.00 77 1012.3
20260507055958 60 0 0.0 0.0 0.00 0.15 0.00 81 1012.1
20260507054958 59 0 0.0 0.0 0.00 0.15 0.00 83 1012.2
20260507053958 58 0 0.0 0.0 0.00 0.15 0.00 86 1012.3
20260507052958 57 0 0.0 0.0 0.00 0.15 0.00 87 1012.1
20260507051958 56 0 0.0 0.0 0.00 0.15 0.00 88 1012.2
20260507051001 56 0 0.0 0.0 0.00 0.15 0.00 88 1012.0
20260507045958 57 0 0.0 0.0 0.00 0.15 0.00 88 1011.7
20260507044958 57 0 0.0 0.0 0.00 0.15 0.00 87 1011.6
20260507042958 58 0 0.0 0.0 0.00 0.16 0.00 85 1011.6
20260507041958 58 0 0.0 0.0 0.00 0.16 0.00 84 1011.5
20260507041000 58 0 0.0 0.0 0.00 0.20 0.00 83 1011.4
20260507033958 59 229 0.0 3.0 0.00 0.23 0.00 80 1011.4
20260507032959 60 0 0.0 0.0 0.00 0.23 0.00 80 1011.3
20260507031959 59 0 0.0 0.0 0.00 0.23 0.00 81 1011.3
20260507030958 60 0 0.0 0.0 0.00 0.23 0.00 79 1011.3
20260507025958 60 0 0.0 0.0 0.00 0.23 0.00 79 1011.3
20260507024958 60 87 1.0 4.0 0.00 0.23 0.00 79 1011.2
20260507023959 60 125 2.0 4.0 0.00 0.24 0.00 78 1011.3
20260507022958 60 128 1.0 4.0 0.00 0.24 0.00 78 1011.3
20260507020958 60 135 0.0 4.0 0.00 0.26 0.00 78 1011.2
20260507015958 60 113 0.0 1.0 0.00 0.29 0.00 78 1011.2
20260507014958 61 126 0.0 3.0 0.00 0.33 0.00 78 1011.2
20260507013958 61 0 0.0 0.0 0.00 0.39 0.00 78 1011.0
20260507012958 61 215 0.0 4.0 0.00 0.54 0.00 78 1011.1
20260507011959 61 0 0.0 0.0 0.00 0.72 0.00 78 1011.2
20260507010959 61 140 1.0 1.0 0.00 0.77 0.00 78 1011.3
20260507005958 61 221 1.0 1.0 0.00 0.79 0.00 79 1011.3
20260507004958 61 238 1.0 6.0 0.00 0.80 0.00 78 1011.3
20260507002959 61 0 0.0 0.0 0.00 0.83 0.00 78 1011.3
20260507001959 61 167 1.0 3.0 0.00 0.84 0.00 78 1011.2
20260507000958 61 194 2.0 5.0 0.00 0.87 0.00 78 1011.2
20260506234958 61 0 1.0 0.0 0.00 0.87 0.00 77 1011.3
20260506233959 61 122 1.0 4.0 0.00 0.87 0.00 77 1011.3
20260506233002 61 0 1.0 0.0 0.00 0.87 0.00 76 1011.3
20260506225008 61 208 2.0 7.0 0.00 0.87 0.00 77 1011.3
20260506224002 62 207 0.0 4.0 0.00 0.87 0.00 76 1011.4
20260506222958 62 144 1.0 2.0 0.00 0.87 0.00 77 1011.3